Hourly Data Report for September 01, 2018

SHEARWATER RCS
NOVA SCOTIA
Current Station Operator: ECCC - MSC

44°37'47.000" N
63°30'48.000" W
24.00 m
8205092
71264
AAW

Download Data

Hourly Data (September 2018)
Hourly Data Report for September 1, 2018
TIME Temp Definition
°C
Dew Point Definition
°C
Rel Hum Definition
%
Wind Dir Definition
10's deg

Wind Spd Definition
km/h
Visibility Definition
km
Stn Press Definition
kPa
Hmdx Definition


Wind Chill Definition


Weather Definition


00:00 16.7 11.9 73 2 6   102.58     LegendNANA
01:00 16.4 12.1 76 8 5   102.59     LegendNANA
02:00 15.9 12.4 80 35 3   102.61     LegendNANA
03:00 15.8 12.9 83 3 7   102.60     LegendNANA
04:00 15.9 13.6 87 4 5   102.58     LegendNANA
05:00 15.7 14.0 90 3 9   102.59     LegendNANA
06:00 15.7 13.6 87 3 11   102.65     LegendNANA
07:00 16.5 13.9 85 3 11   102.68     LegendNANA
08:00 18.3 14.5 79 5 7   102.70     LegendNANA
09:00 20.2 14.0 68 8 12   102.66     LegendNANA
10:00 20.5 14.9 70 11 11   102.67     LegendNANA
11:00 20.2 14.6 70 14 14   102.65     LegendNANA
12:00 21.6 14.5 64 15 15   102.63 25   LegendNANA
13:00 20.1 14.2 69 16 19   102.59     LegendNANA
14:00 20.1 12.8 63 16 13   102.57     LegendNANA
15:00 20.1 13.5 66 16 12   102.52     LegendNANA
16:00 20.7 13.5 63 17 15   102.50     LegendNANA
17:00 20.0 13.2 65 16 14   102.49     LegendNANA
18:00 19.5 12.8 65 16 14   102.42     LegendNANA
19:00 18.4 12.4 68 16 9   102.46     LegendNANA
20:00 16.6 12.6 77 11 5   102.44     LegendNANA
21:00 16.3 13.0 81 13 6   102.41     LegendNANA
22:00 16.9 13.2 79 16 4   102.40     LegendNANA
23:00 15.0 13.0 88 2 2   102.39     LegendNANA

Notes on Data Quality.

Legend

  • E = Estimated
  • M = Missing
  • NA = Not Available*
  • [empty] = Indicates an unobserved value
Date modified: